Евгащино

Россия / Омская область     56°25′18″N   74°40′49″E
темп.,
°C
ветер,
м/с
пор.,
м/с
влажн.,
%
обл.,
%
осадки,
мм/ч
давл.,
гПа
погр.,
м
17 мая, пн
пн1700:00+14с228792 0.0 101634
03:00+13с119283 0.0 101610
06:00+14зсз238827 0.0 101779
09:00+20юз47615 0.0 1015448
12:00+26зюз57415 0.0 10131263
15:00+30зсз792811 0.0 10113123
18:00+29з693013 0.0 10101692
21:00+22зюз364492 0.1 100998
18 мая, вт
вт1800:00+17с38665 0.1 1009246
03:00+15зсз3108234 0.0 1009262
06:00+14зсз39855 0.0 1009347
09:00+19зсз46655 0.0 1009701
12:00+24зсз6104643 0.0 10082187
15:00+22зсз6115097 0.0 10071128
18:00+19ссв686737 0.3 10081068
21:00+13ссв5108263 0.0 1011588
19 мая, ср
ср1900:00+11ссв5977100 0.0 1013879
03:00+10ссв597862 0.0 1014761
06:00+9ссв411835 0.0 1016573
09:00+12ссв68471 0.0 10171057
12:00+15ссв67313 0.0 10181927
15:00+16с573073 0.0 10182457
18:00+15с683594 0.0 10182292
21:00+11с37519 0.0 1018172
20 мая, чт
чт2000:00+7св38675 0.0 1020305
03:00+5ссв495850 0.0 1022375
06:00+4с375585 0.0 1023305
09:00+8с353310 0.0 10241139
12:00+11ссз342788 0.0 10231441
15:00+11сз2342100 0.0 10221326
18:00+12ю575162 0.1 1020538
21:00+12ю4859100 0.0 1016211
21 мая, пт
пт2100:00+15з6156045 0.2 1014577
03:00+15зсз4146382 0.0 1014377
06:00+14зсз515715 0.1 1014359
09:00+20зсз5116030 1.3 1014568
12:00+26зсз69415 1.4 10131298
15:00+29сз6102876 0.0 10123548
18:00+26ссз5113551 0.0 1012599
21:00+20зсз34589 0.0 101350